Wind_Speed
7 8 10 12 12 8 9 7 7 6 3 7 8 10 8 12 11 10 10 9 11 12 19 22 23 24 25 28 26 21 16 11 13 14 16 15 14 12 11 11 12 16 20 19
6 12 4 3 5 8 9 9 12 7 2 4 8 9 6 14 14 12 12 12 14 15 15 24 25 26 28 27 24 21 19 17 17 17 17 15 15 12 13 12 13 15 18 18
13 1 4 9 8 10 10 11 8 8 5 8 9 11 9 10 12 13 13 13 14 17 20 19 27 29 28 28 28 25 21 19 20 17 16 13 14 11 12 13 14 16 21 19
11 8 8 10 10 10 10 8 10 7 6 5 3 3 7 10 13 15 15 16 17 18 19 20 25 29 31 30 27 26 22 20 19 20 18 18 17 15 14 15 12 15 20 16
12 9 11 12 12 9 7 3 7 6 7 6 9 6 7 4 10 14 19 19 19 19 20 22 26 30 29 28 26 23 22 21 21 22 21 20 17 15 15 20 17 15 17 18
12 2 5 4 6 9 2 6 4 5 5 7 2 5 2 5 3 3 5 17 20 20 21 21 28 28 30 28 26 25 25 24 23 23 23 21 20 18 18 21 21 20 20 19
15 14 6 6 9 8 9 8 6 6 6 5 4 5 9 8 4 5 8 6 14 20 20 20 21 25 27 28 28 27 27 26 25 24 24 24 22 21 22 22 24 22 21 21
15 14 14 11 13 8 14 11 5 6 5 4 3 5 2 3 4 7 6 7 7 13 18 20 20 25 25 27 27 27 26 25 25 24 25 24 23 22 22 23 21 24 21 19
16 15 6 7 5 10 7 8 1 1 1 4 5 7 11 4 4 6 3 4 5 9 14 18 19 24 26 27 29 29 27 25 25 26 24 25 24 24 23 20 21 20 19 17
7 11 7 7 7 3 5 11 5 4 5 7 6 8 7 5 1 1 4 5 2 2 7 11 13 22 24 26 27 26 26 25 23 22 21 22 23 22 23 19 18 17 17 17
11 7 6 8 11 12 6 7 4 3 3 4 4 4 3 6 3 5 4 5 4 1 4 8 10 15 19 20 22 24 24 22 20 19 18 19 19 18 18 16 16 17 17 20
19 8 9 12 4 5 10 12 13 6 7 3 4 8 7 10 5 6 7 7 4 3 4 6 8 12 16 19 20 22 20 19 17 14 15 14 13 13 14 15 17 18 19 20
16 11 9 9 7 5 8 11 12 7 3 11 9 8 3 5 7 9 9 6 7 5 6 7 8 9 13 16 18 19 17 15 12 12 15 17 18 16 14 18 20 23 21 15
17 14 17 14 14 10 13 16 15 15 10 12 13 17 13 13 14 12 8 5 6 6 6 7 9 9 13 14 16 16 15 13 15 16 16 16 16 23 24 25 19 17 13 10
12 16 17 17 15 12 16 14 16 17 18 17 14 17 13 14 14 13 5 3 5 7 6 7 9 9 11 13 15 15 15 16 18 19 19 20 20 27 31 23 21 15 14 12
6 11 11 13 11 12 15 16 15 17 16 14 17 18 14 15 10 10 9 6 6 4 5 5 7 8 11 14 17 17 18 19 20 21 21 23 26 26 21 20 20 17 11 7
3 9 6 12 7 6 8 15 15 15 13 16 16 17 14 14 14 14 8 6 5 4 2 2 6 9 12 14 18 19 20 21 20 22 23 23 24 22 20 18 15 13 9 8
4 9 5 6 4 8 9 3 15 18 17 16 16 18 16 14 6 3 3 3 1 3 5 6 6 9 12 15 16 18 20 20 22 24 22 21 23 25 18 14 9 7 9 8
13 7 4 5 10 10 5 5 9 11 16 15 15 18 14 5 6 7 4 3 5 6 7 9 11 13 15 15 16 18 19 21 22 22 23 22 25 20 12 6 6 7 5 6
7 9 7 4 6 8 5 12 10 5 14 11 11 12 8 10 7 4 10 8 8 9 10 12 15 17 18 19 20 22 22 22 23 23 22 20 15 11 7 5 5 3 4 5
4 3 10 10 5 5 4 7 10 9 13 2 8 7 11 12 2 13 12 10 11 12 14 15 16 18 19 21 23 24 24 24 23 20 18 14 10 7 5 4 3 2 4 6
6 6 4 5 4 9 10 10 10 12 3 6 7 9 12 8 10 11 11 12 12 13 16 16 19 19 19 21 24 25 22 21 19 17 13 11 8 7 4 2 1 2 4 6
9 9 5 8 6 3 18 13 15 4 6 6 9 9 13 14 13 14 13 13 12 16 17 19 22 23 22 21 21 22 19 17 16 14 12 10 8 6 3 2 2 3 5 5
8 5 6 5 9 11 9 14 3 6 4 3 5 11 16 17 17 16 14 13 13 18 19 22 23 22 21 19 18 18 16 13 13 12 10 8 7 5 4 3 3 3 4 6
12 11 12 12 12 6 9 13 13 11 7 7 5 10 15 17 18 16 16 16 17 20 21 21 22 22 21 19 18 15 14 13 13 10 8 6 5 5 4 4 3 3 4 4
7 9 8 7 14 8 10 3 12 14 15 13 14 13 13 17 19 17 16 20 22 23 23 22 22 21 19 17 15 13 11 9 10 9 7 6 5 4 3 2 2 2 2 1
Wind_Direction
192 225 225 221 214 278 279 257 261 265 335 276 270 270 189 192 206 176 179 167 163 163 162 172 174 174 177 184 192 202 207 202 183 184 185 182 183 180 187 193 187 183 184 179
197 230 234 239 192 224 221 247 273 279 163 286 275 268 198 190 206 205 194 180 170 165 183 181 184 186 191 195 202 207 209 204 196 195 190 192 190 196 194 191 182 187 184 180
230 118 175 198 191 220 238 259 261 260 312 245 271 245 207 199 205 210 217 207 196 184 188 197 198 200 201 206 207 210 213 211 209 200 192 192 183 180 187 190 188 191 188 182
229 228 205 216 236 228 246 234 247 248 256 245 222 268 191 198 207 216 219 212 207 201 197 197 201 205 208 211 213 217 222 219 211 201 197 196 197 197 198 187 186 190 188 185
205 200 207 226 232 204 253 187 217 248 242 272 176 252 116 177 227 226 216 219 214 207 204 205 205 209 209 210 215 217 214 212 205 202 204 204 208 204 184 184 192 197 190 194
217 145 224 249 190 201 120 182 200 235 228 237 187 265 226 182 290 296 239 216 216 215 210 208 210 208 210 209 210 209 207 209 204 203 204 203 202 191 185 192 194 200 202 198
201 212 205 200 186 170 200 223 212 212 208 243 116 232 272 302 292 274 288 263 226 219 218 212 207 205 205 200 202 203 204 207 206 205 204 204 202 196 197 194 192 206 203 200
203 209 208 193 233 215 202 225 244 242 216 206 163 245 219 357 287 301 282 268 246 229 220 217 215 205 205 200 199 198 200 205 205 206 208 208 207 208 204 199 202 211 210 207
201 214 145 205 194 212 163 212 37 215 7 267 253 236 259 259 277 296 293 238 242 230 219 216 213 210 206 200 200 200 200 205 206 203 208 209 207 207 206 203 208 213 210 200
192 212 204 149 175 154 256 143 182 214 227 240 207 245 258 206 158 33 4 19 59 188 203 208 212 208 208 205 204 202 204 200 204 205 209 208 209 213 211 203 202 201 192 182
201 232 150 178 208 191 169 200 230 274 268 255 271 257 177 231 288 280 322 324 348 327 202 206 206 206 207 206 205 205 205 202 201 204 208 207 210 208 203 194 189 182 176 169
198 216 214 207 138 263 259 232 211 233 211 240 284 270 240 250 271 243 274 275 280 267 215 199 198 195 196 199 201 203 202 201 200 200 197 198 187 170 167 161 162 160 164 165
177 207 202 202 196 188 217 209 226 246 262 241 254 270 155 215 249 243 251 257 256 246 209 193 191 192 194 195 199 197 195 190 181 176 162 163 169 162 151 150 155 159 168 181
174 204 214 225 228 216 214 232 220 225 238 253 245 272 271 253 260 257 227 222 236 245 234 214 198 192 188 189 187 189 178 167 154 161 158 153 150 142 148 152 155 159 176 168
199 221 221 233 245 249 239 242 222 227 239 246 251 262 272 278 281 259 256 229 238 256 250 226 211 188 176 171 169 164 157 147 147 147 140 133 137 141 146 157 163 166 160 177
197 219 207 216 222 229 244 247 249 230 244 257 260 269 282 278 279 251 248 264 273 278 278 248 199 176 163 160 156 152 145 145 149 146 142 140 142 145 149 151 138 151 159 176
217 217 201 234 215 222 254 234 224 227 227 236 257 272 288 274 263 252 255 263 291 314 314 206 176 163 154 151 148 145 144 144 141 136 136 137 139 135 136 140 139 141 174 227
231 210 212 222 178 223 247 238 232 237 241 237 258 272 273 277 297 212 227 237 110 79 98 106 116 126 130 134 134 136 137 136 134 132 130 131 133 132 138 135 147 200 243 240
226 200 182 170 215 256 227 191 194 197 243 246 259 274 269 234 223 211 157 112 94 92 87 96 110 117 120 119 124 123 123 125 126 128 129 133 135 131 140 159 235 234 231 249
190 240 226 163 218 224 230 211 200 198 262 265 248 262 223 177 221 192 145 132 121 113 117 120 122 124 125 130 131 128 128 129 128 131 133 139 144 143 168 184 192 217 244 264
162 184 211 214 238 246 190 155 164 210 254 178 209 229 191 204 343 121 133 130 125 125 125 126 125 125 128 134 134 130 131 130 131 130 130 131 135 143 145 156 173 236 273 282
199 193 189 203 206 238 150 142 204 228 178 193 198 196 191 157 135 142 136 135 134 131 130 126 122 120 124 129 130 128 125 130 128 129 130 126 124 126 126 141 223 303 311 314
222 214 245 215 221 160 185 222 221 237 232 194 197 180 168 156 158 153 146 143 140 137 134 131 126 123 124 126 128 125 128 133 130 128 126 124 119 114 102 79 5 348 339 335
222 171 213 222 239 233 221 229 248 225 234 313 258 186 172 165 158 154 150 148 147 143 140 137 132 127 124 125 124 123 126 128 129 126 123 120 109 110 77 66 35 18 357 343
223 181 234 243 264 278 240 237 224 213 198 171 207 195 182 161 163 158 156 156 152 144 143 141 135 130 125 123 118 119 124 130 128 121 113 107 96 81 74 68 56 55 46 30
189 213 206 221 232 224 251 236 205 209 202 187 170 176 179 171 162 160 157 155 152 151 147 144 139 131 126 120 113 109 111 121 120 116 106 97 91 85 82 88 138 324 27 29
Height
774 780 781 769 768 767 773 776 777 766 766 770 764 762 760 768 773 775 778 779 783 788 796 803 807 811 815 819 821 824 826 828 831 834 837 840 842 844 846 849 852 854 855 858
779 779 765 767 770 774 773 778 776 768 768 774 761 760 753 762 768 768 772 775 778 788 792 797 803 807 811 814 818 821 823 826 829 831 834 837 840 842 846 849 850 853 854 857
772 767 766 770 773 777 773 778 774 775 767 767 769 762 759 757 760 764 766 767 772 776 787 792 797 801 806 809 813 817 820 823 826 828 831 835 838 841 844 847 848 850 852 855
766 758 771 772 772 771 778 764 769 771 773 768 766 768 753 751 758 760 761 762 764 769 774 783 789 793 797 802 808 812 815 818 821 824 827 831 833 836 840 844 847 849 850 854
766 766 772 773 767 767 772 766 768 768 767 768 765 768 746 751 754 748 751 754 755 760 765 770 777 783 790 797 802 806 810 814 817 820 824 827 830 835 839 839 841 847 849 852
752 758 761 759 761 763 767 772 771 769 765 779 763 766 750 745 745 740 737 741 747 751 755 762 768 776 782 789 796 801 805 809 813 817 820 823 826 830 833 835 837 843 846 847
757 759 755 759 763 765 768 771 779 788 782 778 766 771 750 738 736 739 738 737 738 742 748 752 759 767 774 780 788 794 798 802 807 812 815 818 820 823 827 829 833 838 841 842
761 770 757 752 756 757 761 762 774 793 785 772 774 771 751 736 735 734 735 735 737 737 740 746 750 758 766 774 781 785 789 794 799 805 809 813 815 818 821 824 828 833 836 839
755 756 746 749 749 750 763 769 758 775 784 781 760 753 739 733 736 733 730 732 732 733 734 738 745 751 760 767 772 777 781 787 792 795 801 805 809 813 815 819 823 828 833 836
744 759 749 753 752 756 752 749 772 768 791 788 760 760 752 740 737 734 729 726 728 732 733 735 739 745 753 759 766 772 776 779 786 791 797 801 805 809 811 815 819 824 829 833
734 744 760 754 755 749 761 760 759 757 764 775 778 757 733 734 731 733 729 728 727 728 731 734 737 742 749 754 760 766 770 775 781 787 793 797 801 805 808 812 817 822 827 831
728 740 752 750 739 740 738 745 750 766 768 767 770 763 726 727 728 730 728 727 727 729 728 731 734 739 744 750 755 760 766 771 777 784 789 795 798 802 806 811 817 822 827 829
728 741 755 755 752 749 748 744 745 750 759 761 771 759 728 728 729 725 726 724 724 726 727 730 734 737 742 747 752 757 764 771 776 782 787 790 794 800 807 812 817 821 826 831
724 727 737 748 739 732 747 742 741 746 758 754 748 741 727 724 723 720 718 720 722 724 725 726 731 735 740 746 751 758 764 769 774 781 786 790 795 794 802 809 820 820 824 827
721 730 728 726 725 727 731 732 734 743 740 745 738 732 723 721 717 714 715 720 722 722 723 724 727 732 739 746 752 758 764 769 775 781 786 790 795 798 803 812 814 818 824 829
721 725 724 731 727 731 734 727 728 731 730 728 729 727 714 712 715 718 718 722 722 723 723 723 726 732 740 747 752 758 764 770 775 779 784 790 795 799 805 809 812 820 825 828
726 723 732 737 733 737 752 734 726 724 725 725 729 717 708 712 715 715 717 725 725 726 727 727 729 734 740 747 753 760 764 769 774 779 787 792 796 801 807 812 814 819 824 827
726 726 726 738 758 758 718 713 710 716 713 711 714 710 708 709 713 722 728 727 730 732 733 734 736 741 745 749 754 760 765 771 776 782 788 794 798 804 809 814 817 820 821 823
719 723 734 744 736 717 719 724 719 720 715 701 705 703 702 709 722 721 731 735 736 739 739 740 742 745 749 754 759 763 768 774 779 784 790 796 801 806 810 813 816 817 818 819
723 724 722 743 734 738 708 699 702 707 716 695 698 702 704 719 720 703 728 735 739 742 744 745 747 749 752 756 761 766 772 777 782 788 794 799 803 806 808 811 813 815 816 817
733 732 731 726 729 708 700 705 705 724 710 693 695 698 706 712 709 719 730 736 740 744 748 750 751 753 756 760 764 769 775 781 787 791 796 800 802 805 808 811 812 813 814 815
718 723 730 723 733 728 702 710 706 687 692 691 696 697 702 713 724 729 734 739 743 746 749 752 755 759 764 767 771 774 780 786 790 793 798 801 804 806 808 809 810 811 811 811
710 701 702 704 695 681 688 679 682 684 682 690 691 695 701 716 724 729 734 739 743 747 751 753 757 763 769 774 777 779 785 789 793 796 799 801 803 805 806 807 807 807 807 807
694 698 699 699 678 684 685 683 690 688 691 692 695 695 703 708 719 726 733 739 743 747 752 756 760 765 769 775 780 784 788 792 795 798 800 802 803 803 804 805 805 805 806 806
679 686 688 678 678 688 683 683 679 686 688 690 697 699 701 707 716 723 730 737 743 748 754 759 765 770 775 779 781 784 788 790 794 798 800 801 802 803 804 805 806 807 806 806
678 676 683 681 668 673 665 671 677 680 680 683 689 699 704 708 714 722 729 736 743 748 754 761 766 770 776 781 784 788 790 793 794 797 800 801 802 803 804 805 805 805 805 805